Vorticity
1 2 3 4 5 5 5 6 5 5 5 6 6 6 6 6 6 6 6 6 7 7 7 8 8 8 9 9 10 10 10 10 11 11 11 11 11 10 10 10 10 10 10 10 10 11 11 11 11 11 11 12 11 10 10 10 9 8 7 7 6 6 5 5 5 5 6 7 8
1 2 3 4 5 5 5 5 5 5 5 5 5 5 5 5 5 5 6 6 7 7 8 8 9 9 10 10 10 11 11 11 11 11 10 10 10 10 10 10 10 10 10 10 10 10 11 10 10 10 10 10 9 9 9 9 8 7 6 6 5 5 5 5 5 6 7 8 10
2 2 3 4 4 4 5 5 5 5 5 5 5 5 5 5 5 5 6 6 6 7 8 8 9 10 10 10 11 11 11 10 10 10 10 10 10 10 10 10 10 10 10 10 10 10 10 10 10 9 9 8 8 8 8 7 7 6 6 5 5 5 5 5 5 6 8 10 11
2 3 4 4 4 4 5 5 5 5 5 5 5 5 5 5 5 5 6 6 7 7 8 8 9 10 10 10 10 10 10 10 10 10 10 9 9 10 10 10 10 10 10 10 10 10 10 9 9 8 8 7 7 7 7 6 6 6 6 5 5 5 5 5 6 7 8 10 12
3 4 5 5 5 5 5 5 5 6 6 5 5 5 5 5 6 6 6 7 7 8 8 9 9 10 10 10 10 10 10 10 9 9 9 9 9 9 10 10 10 10 10 10 9 9 8 8 8 7 7 6 6 6 6 5 5 5 5 5 5 5 5 6 7 9 11 13 14
6 6 7 7 6 6 6 7 7 6 6 6 6 6 6 6 6 7 7 8 8 8 9 9 10 10 10 10 10 10 10 9 9 9 9 9 9 9 9 10 9 9 9 9 8 8 8 7 7 6 6 6 5 5 5 5 5 5 5 6 6 6 6 7 9 10 12 14 14
8 8 8 8 8 8 7 7 7 7 6 6 7 7 7 7 7 8 8 8 8 9 10 10 10 10 10 10 10 9 9 9 8 9 9 9 9 9 9 9 9 8 8 8 7 7 7 7 6 6 5 5 5 4 5 5 5 5 6 6 6 7 8 9 10 10 11 10 8
10 10 9 9 8 8 8 8 7 7 7 7 7 6 6 7 7 7 7 8 8 9 9 10 10 10 9 9 9 9 8 8 8 8 9 9 9 9 9 8 8 8 8 7 7 7 7 6 6 6 5 5 5 5 5 5 5 6 6 6 7 8 9 10 10 10 9 8 6
13 12 11 10 10 9 9 8 7 7 6 6 6 6 6 6 6 6 7 7 8 8 9 9 9 9 9 9 8 8 8 8 8 8 8 9 9 8 8 8 8 8 8 8 7 7 7 7 7 6 6 6 6 6 6 6 6 7 7 8 8 9 10 10 10 10 9 7 6
13 12 12 11 11 10 8 7 7 7 6 6 6 6 6 6 6 6 6 7 8 8 9 9 9 9 8 8 8 8 8 8 8 8 8 8 8 8 8 8 8 8 8 8 8 8 8 8 8 8 8 8 7 7 7 8 8 8 8 9 9 10 10 11 11 10 9 9 9
12 11 11 10 9 8 7 6 6 6 6 6 6 6 6 6 6 7 7 7 8 8 8 9 8 8 8 8 8 8 8 8 8 8 8 8 8 8 8 8 8 8 8 9 9 9 9 9 9 9 9 9 9 9 9 9 9 9 9 10 11 11 10 10 10 10 10 10 10
11 10 9 8 7 6 5 5 5 5 5 6 6 7 7 7 7 8 8 8 8 9 9 8 8 8 8 8 8 7 7 8 8 8 8 8 8 8 8 9 9 9 9 9 9 9 9 9 9 9 9 9 9 9 10 10 10 10 10 11 11 11 11 10 11 11 11 11 10
8 8 7 6 6 5 4 4 4 5 6 7 7 8 8 8 9 9 9 9 9 9 9 8 8 7 7 7 7 7 7 7 8 8 8 8 9 9 9 9 9 9 9 10 10 10 10 10 10 10 9 9 10 10 10 11 11 11 12 12 12 13 13 12 12 12 11 11 11
7 6 6 5 4 4 4 4 5 6 6 8 8 9 9 10 10 10 10 10 10 10 9 8 8 7 7 7 7 7 7 8 8 8 9 9 9 10 10 10 10 10 10 10 10 10 10 10 10 10 10 10 11 11 12 13 13 13 13 13 13 13 13 13 12 12 12 11 11
6 5 5 4 4 4 4 5 5 6 7 8 9 10 10 11 11 11 11 11 11 10 9 8 8 7 7 7 7 8 8 8 9 9 10 10 10 10 10 10 10 10 10 10 10 11 11 11 11 11 12 12 12 13 13 14 14 14 13 13 13 13 13 12 12 12 12 12 11
5 5 4 4 4 4 5 5 6 7 9 10 11 11 12 12 12 12 12 12 11 10 9 8 8 8 8 8 8 8 9 9 10 10 10 10 10 10 10 10 10 10 10 10 11 11 12 12 13 13 13 14 14 14 14 14 14 14 13 13 13 12 12 12 12 12 12 12 12
5 5 5 5 5 5 6 7 8 9 10 12 12 13 13 13 13 13 12 12 11 10 9 9 8 8 9 9 10 10 10 10 10 10 10 10 10 10 10 10 10 10 11 11 11 12 12 13 14 14 14 15 15 15 14 14 14 13 12 12 12 12 12 12 12 12 12 12 12
6 5 5 6 6 7 8 9 10 12 13 14 14 14 14 13 12 12 12 11 10 10 10 9 9 10 10 10 11 11 11 11 10 10 10 10 9 9 10 10 10 11 11 12 12 13 13 14 14 15 15 15 14 14 13 13 12 12 12 11 12 12 12 13 13 13 13 13 14
6 6 7 8 9 10 11 12 13 14 14 14 14 14 13 12 12 11 11 10 10 10 10 10 10 11 11 12 12 12 11 11 10 10 9 9 9 9 10 10 10 11 12 13 13 14 14 14 15 15 14 14 13 12 12 11 11 11 11 12 12 13 13 14 14 14 15 15 15
8 9 10 11 12 13 14 14 15 14 14 14 13 12 12 11 11 10 10 10 10 11 11 11 11 11 12 12 12 11 11 10 10 9 9 9 9 9 10 10 10 11 12 13 14 14 14 14 14 13 13 12 11 10 10 10 11 12 12 13 14 14 15 15 15 16 16 16 16
11 12 13 13 14 14 14 14 14 13 13 12 12 11 11 10 10 10 10 10 11 11 11 11 11 11 11 11 11 11 10 10 10 9 9 9 9 9 10 10 10 11 12 13 14 14 14 14 13 12 10 10 9 10 10 11 12 13 14 15 15 15 15 15 16 16 16 16 16
13 14 14 14 14 13 13 12 12 11 11 11 10 10 10 10 10 10 10 10 10 11 11 11 11 11 11 11 10 10 10 10 9 9 9 9 9 9 10 10 11 12 13 14 14 14 13 12 11 10 9 9 10 11 12 13 14 15 15 15 15 15 15 15 15 15 15 15 15
13 13 13 12 12 11 11 10 10 10 10 9 9 9 10 10 10 10 10 10 10 10 10 10 10 10 10 10 10 10 10 9 9 9 9 9 9 10 10 11 12 12 13 14 14 13 12 10 9 9 9 10 12 13 14 15 15 15 15 14 14 14 14 14 13 13 14 14 14
11 11 10 10 10 9 9 9 9 9 9 9 9 9 9 9 9 9 9 9 9 9 9 9 10 10 10 10 10 9 9 9 9 9 9 9 9 10 11 11 12 13 14 14 13 12 10 9 9 10 11 12 14 14 15 15 14 14 13 13 12 12 12 12 12 12 12 13 12
9 8 8 8 8 8 8 8 9 9 9 9 9 9 9 9 9 9 9 9 9 9 9 9 9 9 9 9 9 9 9 8 9 9 9 9 9 10 11 12 13 13 14 13 12 11 10 9 10 12 13 14 15 15 14 13 13 12 12 12 12 12 12 12 12 12 12 12 12
7 7 7 8 8 8 8 8 8 8 8 9 9 9 9 9 9 9 9 9 9 9 9 9 9 9 9 9 9 9 8 8 9 9 9 9 9 10 11 12 13 13 13 12 11 10 10 11 13 14 15 15 14 13 12 12 12 12 12 12 12 12 12 12 12 13 13 12 12
7 7 8 8 8 8 8 8 8 8 8 9 9 9 9 9 9 9 9 9 9 9 9 9 9 9 8 8 9 9 9 9 9 9 9 9 9 10 11 12 13 13 13 12 11 11 12 13 14 15 15 14 12 12 11 11 11 12 12 13 13 13 13 13 13 13 13 13 13
8 8 8 9 9 9 9 9 8 8 8 8 8 8 9 9 9 9 9 9 9 9 9 9 9 9 9 9 9 9 10 10 10 10 10 10 10 11 12 13 13 13 12 12 11 12 13 14 15 14 13 11 10 10 10 10 11 12 13 13 14 14 14 14 14 13 13 13 13
8 9 9 9 10 9 9 9 8 8 8 8 8 8 8 8 9 9 9 9 9 9 9 9 9 9 9 9 9 10 10 10 11 11 11 10 11 12 13 14 14 13 12 12 12 13 14 14 13 12 10 9 9 9 9 10 11 12 13 13 14 14 14 14 14 13 13 13 12
9 9 9 9 10 10 9 9 9 9 8 8 8 8 8 8 8 9 9 9 9 9 9 9 9 9 9 10 10 11 11 12 12 12 12 12 13 13 14 14 14 13 13 12 13 14 13 13 11 9 8 7 8 8 10 11 12 13 13 13 14 14 14 14 13 13 13 12 12
9 9 9 9 10 10 10 10 10 9 9 9 8 8 8 9 9 9 9 9 9 9 9 9 9 10 10 10 11 12 12 13 13 13 14 14 14 15 15 14 14 13 13 13 13 13 12 10 9 7 7 7 8 9 11 12 13 14 14 13 13 13 13 13 13 13 13 13 13
9 9 10 10 10 10 11 11 10 10 10 10 9 9 9 9 9 9 9 10 10 10 10 10 10 10 11 11 12 13 14 15 15 15 15 15 15 15 15 14 14 14 13 13 13 11 10 8 7 6 7 8 10 12 13 14 14 14 14 14 14 14 14 14 14 14 14 14 14
10 10 11 11 11 11 11 11 11 11 11 11 11 10 10 10 10 10 10 10 10 10 10 10 11 11 12 13 14 15 16 17 17 17 17 17 16 16 15 15 14 13 13 12 11 10 8 7 6 7 8 10 12 14 15 15 15 15 14 14 14 14 14 14 15 15 15 15 15
11 11 11 11 11 11 11 11 11 11 11 11 11 11 11 11 11 11 11 11 11 11 11 11 12 13 14 15 16 17 18 18 18 18 18 17 16 16 15 14 14 13 12 11 9 8 7 6 7 9 11 13 15 16 16 16 16 16 15 15 15 16 16 16 16 15 15 14 14
11 12 13 13 12 11 11 11 11 11 12 12 12 12 12 12 12 12 12 12 12 12 12 12 13 14 15 16 18 18 19 19 19 18 18 17 16 15 15 13 12 12 10 9 8 7 7 8 10 12 15 16 17 18 17 17 17 16 17 17 17 16 16 16 15 14 13 12 11
10 12 14 14 14 12 12 11 11 12 12 13 13 13 13 13 13 13 13 13 13 13 13 14 14 15 16 18 19 20 20 19 18 18 17 16 15 14 13 12 11 10 9 8 8 8 9 11 14 16 18 19 19 18 18 18 18 17 17 17 17 16 15 14 13 12 10 9 8
9 12 15 16 15 14 12 11 12 12 13 14 14 14 14 14 15 15 15 14 14 14 15 15 16 17 19 20 20 20 20 19 18 17 16 15 14 13 12 10 10 9 8 8 9 10 13 15 17 19 20 20 19 19 19 19 19 18 18 17 16 14 13 11 10 8 7 6 5
6 11 15 18 17 15 13 11 12 12 14 14 15 15 15 16 16 16 17 16 16 16 16 16 18 19 20 21 20 19 19 18 17 16 14 13 12 11 10 9 9 9 9 10 12 14 17 19 20 21 21 20 20 20 19 19 18 17 16 14 13 11 9 8 6 5 4 4 4
5 10 15 19 18 16 12 10 10 12 13 14 15 16 16 17 18 18 19 18 18 17 17 18 20 20 20 20 19 18 17 16 15 14 12 11 10 10 9 9 9 10 11 13 16 18 20 22 22 21 21 20 20 19 19 18 16 14 13 11 9 7 6 5 4 4 4 4 5
4 10 16 21 20 16 11 8 8 10 12 14 16 17 18 19 20 21 21 20 19 19 18 19 20 20 20 19 18 17 15 14 13 11 10 10 9 9 9 10 11 13 15 18 20 22 22 22 22 21 21 20 19 18 16 15 13 11 9 7 5 4 4 4 4 4 5 6 6
5 11 18 24 22 16 9 4 5 8 12 15 18 20 22 23 23 23 22 21 20 19 19 19 19 19 18 18 16 14 13 11 10 10 9 9 9 9 10 12 14 16 19 22 23 23 23 22 21 20 19 18 16 15 13 11 9 7 5 4 4 3 4 4 5 6 7 7 8
Height
3134 3135 3135 3135 3136 3136 3136 3137 3137 3137 3137 3138 3138 3139 3139 3139 3139 3139 3139 3140 3140 3140 3140 3139 3139 3139 3139 3139 3139 3138 3138 3138 3138 3137 3137 3137 3137 3137 3137 3136 3136 3136 3136 3135 3135 3135 3134 3134 3133 3133 3133 3133 3133 3133 3133 3133 3132 3132 3132 3132 3132 3132 3132 3131 3131 3131 3130 3130 3129
3132 3132 3132 3133 3133 3133 3134 3134 3135 3135 3135 3136 3136 3136 3137 3137 3137 3137 3137 3137 3137 3137 3137 3137 3137 3136 3136 3136 3136 3136 3135 3135 3135 3135 3135 3135 3134 3134 3134 3134 3133 3133 3133 3133 3132 3132 3132 3132 3132 3131 3131 3131 3131 3131 3131 3131 3130 3130 3130 3130 3130 3130 3130 3129 3129 3128 3128 3127 3127
3129 3130 3130 3131 3131 3131 3132 3132 3132 3132 3133 3133 3133 3134 3134 3134 3134 3134 3134 3134 3134 3134 3134 3134 3134 3133 3133 3133 3133 3133 3133 3132 3132 3132 3132 3132 3132 3132 3132 3131 3131 3131 3131 3130 3130 3130 3130 3129 3129 3129 3129 3129 3129 3128 3128 3128 3128 3128 3128 3128 3128 3128 3127 3127 3127 3126 3126 3125 3125
3127 3127 3128 3128 3128 3129 3129 3129 3130 3130 3130 3131 3131 3131 3131 3132 3132 3132 3132 3132 3132 3132 3131 3131 3131 3131 3131 3131 3130 3130 3130 3130 3130 3130 3130 3130 3129 3129 3129 3129 3129 3128 3128 3128 3128 3128 3127 3127 3127 3127 3127 3127 3127 3127 3126 3126 3126 3126 3126 3126 3126 3125 3125 3125 3124 3124 3124 3123 3123
3124 3125 3125 3126 3126 3126 3127 3127 3127 3127 3128 3128 3128 3128 3129 3129 3129 3129 3129 3129 3129 3129 3129 3128 3128 3128 3128 3128 3128 3127 3127 3127 3127 3127 3127 3127 3127 3127 3127 3127 3126 3126 3126 3126 3126 3125 3125 3125 3125 3125 3125 3124 3124 3124 3124 3124 3124 3124 3124 3123 3123 3123 3123 3122 3122 3122 3122 3121 3121
3122 3122 3122 3123 3123 3124 3124 3124 3125 3125 3125 3126 3126 3126 3126 3126 3126 3126 3126 3126 3126 3126 3126 3126 3126 3125 3125 3125 3125 3125 3125 3125 3125 3125 3124 3124 3124 3124 3124 3124 3124 3124 3123 3123 3123 3123 3123 3123 3122 3122 3122 3122 3122 3122 3122 3122 3122 3122 3122 3121 3121 3121 3120 3120 3120 3119 3119 3119 3118
3119 3119 3120 3120 3121 3121 3121 3122 3122 3122 3122 3122 3123 3123 3123 3123 3123 3123 3123 3123 3123 3123 3123 3123 3123 3122 3122 3122 3122 3122 3122 3122 3122 3122 3122 3122 3122 3122 3122 3122 3121 3121 3121 3121 3121 3121 3120 3120 3120 3120 3120 3120 3120 3120 3120 3120 3120 3119 3119 3119 3118 3118 3118 3118 3117 3117 3117 3117 3117
3116 3117 3117 3117 3118 3118 3118 3119 3119 3119 3119 3120 3120 3120 3120 3120 3120 3120 3120 3121 3121 3121 3121 3120 3120 3120 3120 3120 3120 3120 3120 3120 3119 3119 3119 3119 3119 3119 3119 3119 3119 3119 3119 3118 3118 3118 3118 3118 3118 3118 3118 3118 3118 3117 3117 3117 3117 3117 3117 3117 3116 3116 3116 3115 3115 3115 3115 3115 3115
3113 3114 3114 3115 3115 3115 3116 3116 3116 3117 3117 3117 3117 3117 3117 3117 3117 3117 3118 3118 3118 3118 3118 3117 3117 3117 3117 3117 3117 3117 3117 3117 3117 3117 3117 3117 3117 3117 3117 3117 3117 3116 3116 3116 3116 3116 3115 3115 3115 3115 3115 3115 3115 3115 3115 3115 3115 3115 3114 3114 3114 3114 3113 3113 3112 3112 3112 3113 3112
3110 3111 3111 3112 3112 3112 3113 3113 3113 3114 3114 3114 3114 3114 3114 3114 3115 3115 3115 3115 3115 3115 3115 3115 3115 3115 3115 3114 3114 3114 3114 3114 3114 3114 3114 3114 3114 3114 3114 3114 3114 3114 3113 3113 3113 3113 3113 3113 3113 3113 3113 3113 3113 3112 3112 3112 3112 3112 3112 3112 3112 3111 3111 3110 3110 3110 3110 3110 3109
3107 3108 3109 3109 3109 3110 3110 3111 3111 3111 3111 3111 3111 3112 3112 3112 3112 3112 3112 3112 3112 3112 3112 3112 3112 3112 3112 3112 3112 3112 3112 3112 3112 3112 3112 3112 3112 3112 3111 3111 3111 3111 3111 3111 3110 3110 3110 3110 3110 3110 3110 3110 3110 3110 3110 3110 3110 3109 3109 3109 3109 3108 3108 3108 3108 3108 3107 3107 3107
3105 3106 3106 3107 3107 3107 3107 3108 3108 3108 3108 3108 3108 3109 3109 3109 3109 3109 3109 3109 3109 3109 3109 3109 3109 3109 3109 3109 3109 3109 3109 3109 3109 3109 3109 3109 3109 3109 3108 3108 3108 3108 3108 3108 3108 3108 3107 3107 3107 3107 3107 3107 3107 3107 3107 3107 3107 3107 3107 3106 3106 3106 3106 3105 3105 3105 3105 3105 3104
3102 3103 3103 3104 3104 3105 3105 3105 3105 3106 3106 3106 3106 3106 3106 3106 3106 3107 3107 3107 3107 3107 3107 3107 3107 3107 3107 3107 3107 3107 3107 3107 3106 3106 3106 3106 3106 3106 3106 3106 3106 3105 3105 3105 3105 3105 3105 3105 3105 3104 3104 3104 3104 3105 3104 3104 3104 3104 3104 3103 3103 3103 3103 3102 3102 3102 3102 3102 3102
3100 3101 3101 3101 3102 3102 3102 3102 3103 3103 3103 3103 3103 3104 3104 3104 3104 3104 3104 3104 3104 3104 3104 3104 3104 3104 3104 3104 3104 3104 3104 3104 3104 3104 3104 3104 3103 3103 3103 3103 3103 3103 3102 3102 3102 3102 3102 3102 3102 3102 3102 3102 3102 3102 3102 3102 3101 3101 3101 3101 3100 3100 3100 3100 3100 3100 3100 3100 3100
3097 3098 3098 3099 3099 3099 3100 3100 3100 3100 3101 3101 3101 3101 3101 3101 3101 3101 3101 3101 3101 3101 3102 3102 3102 3102 3102 3102 3102 3102 3102 3102 3101 3101 3101 3101 3101 3101 3101 3101 3100 3100 3100 3100 3100 3099 3099 3099 3099 3099 3099 3099 3099 3099 3099 3099 3098 3098 3098 3098 3098 3098 3098 3097 3097 3097 3097 3097 3097
3095 3096 3096 3096 3097 3097 3097 3097 3097 3098 3098 3098 3098 3098 3098 3098 3098 3098 3098 3098 3098 3099 3099 3099 3099 3099 3099 3099 3099 3099 3099 3099 3099 3099 3099 3098 3098 3098 3098 3098 3098 3097 3097 3097 3097 3097 3097 3097 3097 3096 3096 3096 3096 3096 3096 3096 3096 3096 3096 3096 3095 3095 3095 3095 3095 3095 3095 3095 3095
3092 3093 3093 3094 3094 3094 3095 3095 3095 3095 3095 3095 3095 3096 3096 3096 3096 3096 3096 3096 3096 3097 3097 3097 3097 3097 3097 3097 3097 3097 3097 3097 3096 3096 3096 3096 3096 3096 3096 3095 3095 3095 3095 3094 3094 3094 3094 3094 3094 3094 3094 3094 3094 3094 3094 3093 3093 3093 3093 3093 3093 3093 3093 3093 3093 3092 3092 3092 3092
3090 3091 3091 3092 3092 3092 3092 3092 3092 3092 3092 3092 3093 3093 3093 3093 3093 3093 3093 3094 3094 3094 3094 3094 3094 3094 3094 3094 3094 3094 3094 3094 3094 3094 3094 3093 3093 3093 3093 3093 3092 3092 3092 3092 3092 3092 3092 3091 3091 3091 3091 3091 3091 3091 3091 3091 3091 3091 3091 3091 3091 3091 3091 3090 3090 3090 3090 3090 3090
3088 3088 3089 3089 3089 3089 3090 3090 3090 3090 3090 3090 3090 3090 3091 3091 3091 3091 3091 3091 3092 3092 3092 3092 3092 3092 3092 3092 3092 3092 3092 3092 3091 3091 3091 3091 3091 3090 3090 3090 3090 3090 3089 3089 3089 3089 3089 3089 3089 3089 3089 3089 3089 3089 3089 3089 3089 3089 3089 3089 3088 3088 3088 3088 3088 3088 3087 3087 3087
3086 3086 3086 3087 3087 3087 3087 3087 3087 3087 3087 3087 3088 3088 3088 3088 3088 3089 3089 3089 3089 3089 3089 3089 3089 3089 3089 3089 3089 3089 3089 3089 3089 3088 3088 3088 3088 3087 3087 3087 3087 3087 3087 3087 3087 3087 3087 3087 3087 3087 3087 3087 3087 3087 3087 3087 3087 3087 3087 3086 3086 3086 3086 3086 3085 3085 3085 3085 3085
3083 3084 3084 3084 3084 3084 3084 3085 3085 3085 3085 3085 3085 3085 3086 3086 3086 3086 3086 3086 3087 3087 3087 3087 3087 3087 3087 3087 3087 3087 3087 3086 3086 3086 3086 3086 3085 3085 3085 3085 3085 3084 3084 3084 3084 3084 3084 3084 3084 3084 3084 3084 3084 3084 3084 3084 3084 3084 3084 3084 3084 3083 3083 3083 3083 3083 3083 3083 3083
3081 3081 3082 3082 3082 3082 3082 3082 3082 3082 3082 3082 3083 3083 3083 3083 3083 3083 3084 3084 3084 3084 3084 3084 3084 3084 3084 3084 3084 3084 3084 3084 3083 3083 3083 3083 3083 3082 3082 3082 3082 3082 3082 3082 3082 3082 3082 3082 3082 3082 3082 3082 3082 3082 3082 3082 3082 3082 3082 3082 3082 3081 3081 3081 3081 3081 3081 3081 3081
3079 3079 3079 3079 3079 3079 3080 3080 3080 3080 3080 3080 3080 3080 3081 3081 3081 3081 3081 3081 3081 3081 3081 3081 3081 3081 3081 3082 3082 3082 3081 3081 3081 3081 3081 3080 3080 3080 3080 3080 3080 3080 3080 3080 3080 3080 3080 3080 3080 3080 3080 3080 3080 3080 3080 3080 3080 3080 3079 3079 3079 3079 3079 3079 3079 3079 3079 3079 3079
3077 3077 3077 3077 3077 3077 3077 3077 3077 3077 3077 3077 3077 3078 3078 3078 3078 3078 3078 3078 3078 3078 3078 3078 3078 3078 3078 3078 3079 3079 3079 3078 3078 3078 3078 3078 3078 3077 3077 3077 3077 3077 3077 3077 3077 3077 3078 3078 3078 3078 3078 3078 3078 3078 3078 3078 3077 3077 3077 3077 3077 3077 3077 3077 3077 3077 3077 3077 3077
3074 3074 3074 3075 3075 3075 3075 3075 3075 3075 3075 3075 3075 3075 3075 3075 3075 3075 3075 3075 3075 3076 3076 3076 3076 3076 3076 3076 3076 3076 3076 3076 3076 3076 3075 3075 3075 3075 3075 3075 3075 3075 3075 3075 3075 3076 3076 3076 3076 3076 3076 3076 3076 3076 3076 3076 3076 3075 3075 3075 3075 3075 3075 3075 3075 3075 3075 3075 3075
3072 3072 3072 3072 3072 3072 3072 3072 3072 3072 3072 3072 3072 3072 3072 3072 3072 3072 3072 3072 3072 3073 3073 3073 3073 3073 3073 3073 3073 3073 3073 3073 3073 3073 3073 3073 3073 3073 3073 3072 3073 3073 3073 3073 3073 3073 3073 3074 3074 3074 3074 3074 3074 3074 3073 3073 3073 3073 3073 3073 3073 3073 3073 3073 3073 3073 3073 3073 3073
3070 3070 3070 3070 3070 3070 3070 3070 3070 3070 3070 3070 3070 3070 3070 3070 3070 3070 3070 3070 3070 3070 3070 3070 3070 3070 3070 3070 3070 3070 3070 3070 3070 3070 3070 3070 3070 3070 3070 3070 3070 3071 3071 3071 3071 3071 3071 3072 3072 3072 3072 3072 3072 3072 3072 3072 3072 3072 3072 3072 3072 3071 3071 3071 3071 3072 3072 3072 3072
3068 3068 3068 3068 3067 3067 3067 3067 3067 3067 3067 3067 3067 3067 3067 3067 3067 3067 3067 3067 3067 3067 3067 3067 3067 3067 3067 3067 3067 3067 3067 3067 3067 3067 3067 3067 3068 3068 3068 3068 3068 3068 3068 3069 3069 3069 3069 3069 3070 3070 3070 3070 3070 3070 3070 3070 3070 3070 3070 3070 3070 3070 3070 3070 3070 3070 3070 3070 3070
3066 3066 3066 3065 3065 3065 3065 3065 3065 3064 3064 3064 3064 3064 3064 3064 3064 3064 3064 3064 3064 3065 3065 3065 3065 3065 3065 3065 3065 3065 3065 3065 3065 3065 3065 3065 3065 3066 3066 3066 3066 3066 3066 3067 3067 3067 3067 3067 3067 3068 3068 3068 3068 3068 3068 3068 3068 3068 3068 3068 3068 3068 3068 3068 3068 3068 3068 3068 3069
3063 3063 3063 3063 3063 3063 3063 3062 3062 3062 3062 3062 3062 3062 3062 3062 3062 3062 3062 3062 3062 3062 3062 3062 3062 3062 3062 3062 3062 3062 3062 3062 3062 3062 3062 3062 3063 3063 3063 3063 3064 3064 3064 3064 3064 3065 3065 3065 3066 3066 3066 3066 3066 3066 3066 3066 3066 3066 3066 3066 3066 3066 3066 3066 3067 3067 3067 3067 3067
3061 3061 3061 3061 3060 3060 3060 3060 3060 3060 3060 3059 3059 3059 3059 3059 3059 3059 3059 3059 3059 3059 3059 3059 3059 3059 3059 3059 3059 3059 3059 3059 3060 3060 3060 3060 3061 3061 3061 3061 3062 3062 3062 3062 3062 3063 3063 3063 3064 3064 3064 3064 3064 3064 3064 3064 3064 3064 3064 3064 3064 3065 3065 3065 3065 3065 3066 3066 3066
3058 3058 3058 3058 3058 3058 3057 3057 3057 3057 3057 3057 3057 3057 3056 3056 3056 3056 3057 3057 3057 3057 3057 3057 3057 3057 3057 3057 3056 3056 3057 3057 3057 3057 3057 3058 3058 3058 3059 3059 3059 3060 3060 3060 3061 3061 3061 3062 3062 3062 3062 3062 3062 3062 3062 3062 3062 3062 3063 3063 3063 3063 3063 3064 3064 3064 3064 3064 3065
3056 3056 3056 3056 3056 3055 3055 3055 3055 3055 3054 3054 3054 3054 3054 3053 3054 3054 3054 3054 3054 3054 3054 3054 3054 3054 3054 3054 3054 3054 3054 3054 3054 3055 3055 3056 3056 3056 3057 3057 3057 3058 3058 3058 3059 3059 3060 3060 3060 3060 3060 3060 3060 3060 3061 3061 3061 3061 3061 3061 3062 3062 3062 3062 3063 3063 3063 3063 3064
3054 3054 3053 3053 3053 3053 3052 3052 3052 3052 3052 3052 3051 3051 3051 3051 3051 3051 3051 3051 3051 3051 3051 3051 3051 3051 3051 3051 3051 3051 3051 3052 3052 3052 3053 3053 3054 3054 3055 3055 3056 3056 3056 3057 3057 3057 3058 3058 3058 3058 3058 3058 3058 3059 3059 3059 3059 3059 3060 3060 3060 3061 3061 3061 3062 3062 3062 3062 3063
3052 3051 3051 3051 3051 3050 3050 3050 3050 3049 3049 3049 3048 3048 3048 3048 3048 3048 3048 3048 3048 3048 3048 3048 3048 3048 3048 3048 3048 3049 3049 3049 3050 3050 3051 3051 3052 3052 3053 3053 3054 3054 3054 3055 3055 3056 3056 3056 3056 3057 3057 3057 3057 3057 3057 3057 3058 3058 3059 3059 3059 3060 3060 3060 3061 3061 3061 3062 3062
3049 3049 3049 3048 3048 3047 3047 3047 3047 3047 3046 3046 3046 3045 3045 3045 3045 3045 3045 3045 3045 3045 3045 3045 3045 3046 3046 3046 3046 3046 3047 3047 3047 3048 3048 3049 3050 3050 3051 3051 3052 3052 3052 3053 3053 3054 3054 3054 3054 3055 3055 3055 3055 3055 3056 3056 3057 3057 3057 3058 3058 3059 3059 3060 3060 3060 3061 3061 3062
3047 3047 3046 3046 3045 3045 3045 3045 3044 3044 3043 3043 3042 3042 3042 3042 3042 3042 3042 3042 3042 3042 3042 3042 3043 3043 3043 3043 3043 3044 3044 3045 3045 3046 3047 3047 3048 3048 3049 3050 3050 3051 3051 3051 3052 3052 3052 3052 3052 3053 3053 3053 3054 3054 3055 3055 3056 3056 3057 3057 3057 3058 3058 3059 3059 3060 3060 3061 3061
3045 3044 3044 3043 3043 3042 3042 3042 3042 3041 3041 3040 3040 3039 3039 3039 3039 3039 3039 3039 3039 3039 3040 3040 3040 3040 3041 3041 3041 3042 3042 3043 3044 3044 3045 3046 3046 3047 3047 3048 3048 3049 3049 3049 3050 3050 3051 3051 3051 3051 3052 3052 3052 3053 3054 3054 3055 3055 3056 3056 3057 3057 3058 3058 3059 3059 3059 3060 3060
3042 3042 3041 3041 3040 3040 3040 3039 3039 3038 3038 3037 3037 3037 3036 3036 3036 3036 3036 3036 3037 3037 3037 3037 3038 3038 3038 3038 3039 3040 3040 3041 3042 3042 3043 3044 3044 3045 3046 3046 3047 3047 3047 3048 3048 3048 3049 3049 3049 3050 3050 3051 3052 3052 3053 3053 3054 3054 3055 3056 3056 3057 3057 3058 3058 3058 3058 3059 3059
3040 3039 3039 3038 3038 3037 3037 3037 3036 3036 3035 3034 3034 3033 3033 3033 3033 3033 3033 3034 3034 3034 3035 3035 3035 3036 3036 3037 3037 3038 3039 3039 3040 3041 3042 3042 3043 3043 3044 3044 3045 3045 3046 3046 3046 3047 3047 3047 3048 3049 3049 3050 3051 3051 3052 3053 3053 3054 3054 3055 3056 3056 3057 3057 3057 3057 3057 3058 3058
3037 3037 3036 3036 3035 3035 3034 3034 3033 3033 3032 3032 3031 3031 3030 3030 3030 3030 3031 3031 3032 3032 3032 3033 3033 3034 3034 3035 3036 3036 3037 3038 3038 3039 3040 3041 3041 3042 3042 3042 3043 3043 3044 3044 3045 3045 3046 3047 3047 3048 3048 3049 3050 3051 3052 3052 3053 3053 3054 3054 3055 3055 3056 3056 3056 3057 3057 3057 3057